Temp
55 61 61 65 65 65 57 55 51 54 54 54 57 63 63 65 66 66 65 65 66 67 67 69 67 70 72 74 73 71 71 72 80 80 80 79 77 78 78 76 77 77 76 76
53 63 63 62 67 66 65 61 58 55 55 60 61 64 62 63 63 63 65 66 66 67 68 68 69 68 72 72 72 73 74 75 79 80 80 78 79 78 78 78 77 76 76 76
42 59 58 53 62 62 61 62 59 53 56 61 60 61 61 62 63 62 66 64 64 64 67 67 69 72 71 72 73 73 74 76 81 82 80 80 80 78 78 77 77 77 76 76
44 50 41 56 67 65 59 61 63 62 62 62 61 62 62 64 63 62 63 63 67 65 66 68 68 69 69 70 71 74 74 74 77 80 79 81 81 80 81 79 77 78 77 77
44 43 51 61 65 66 59 53 60 59 61 62 63 62 60 65 64 62 62 61 65 69 67 66 66 67 67 70 70 71 72 72 73 75 77 77 78 79 79 76 76 77 78 78
44 42 40 52 66 69 66 47 59 60 59 59 60 52 59 62 64 63 63 63 64 67 68 65 66 66 70 66 66 66 68 70 72 74 76 77 77 77 77 77 77 77 77 77
41 41 49 57 64 68 54 49 57 56 55 57 54 56 60 62 62 62 62 63 63 65 64 64 65 69 67 67 64 66 68 70 71 74 75 75 75 76 76 76 77 77 76 76
41 39 41 61 63 58 55 57 57 55 55 55 58 60 59 60 59 61 61 61 62 62 62 64 65 67 65 64 64 68 69 69 71 72 74 76 75 75 76 76 75 74 73 73
48 43 53 56 56 58 60 57 55 54 55 56 58 60 59 58 58 59 60 61 61 61 62 63 64 65 64 63 65 66 68 70 71 73 74 73 74 74 74 73 72 72 72 73
47 52 55 58 59 60 61 57 57 56 56 57 55 57 56 57 57 57 58 59 60 60 60 61 64 65 64 65 66 66 67 68 68 69 69 70 70 69 68 68 69 69 69 68
46 51 55 57 58 60 60 60 59 58 57 57 56 56 56 56 56 57 58 59 59 59 60 61 63 63 64 64 65 65 66 65 66 67 68 69 63 63 66 58 57 66 65 65
45 54 50 52 56 60 58 57 57 57 56 56 56 55 58 55 55 56 56 58 58 57 58 60 59 59 60 62 63 64 65 64 63 65 66 68 66 64 52 51 48 48 46 55
52 55 54 56 59 61 58 58 59 57 57 55 54 56 59 55 56 57 55 56 57 56 57 58 57 57 58 60 62 64 62 60 65 63 65 65 66 68 63 53 47 46 46 45
60 59 54 55 54 58 59 58 58 57 56 56 55 56 58 55 58 57 56 57 57 57 56 57 56 56 57 61 63 63 63 57 63 65 65 64 63 65 67 65 63 59 48 48
56 56 55 55 56 57 57 57 55 54 54 54 55 55 55 54 54 56 58 57 56 55 55 56 55 55 56 59 61 61 61 60 61 63 62 61 62 63 65 66 61 60 59 54
55 57 56 55 55 56 56 56 53 53 53 53 54 54 56 54 56 56 55 57 55 51 53 54 53 54 54 55 59 59 59 58 59 60 60 59 58 58 58 61 59 57 55 53
53 51 53 52 53 53 54 55 55 54 53 53 53 54 58 56 57 56 56 57 55 52 52 55 53 53 53 52 54 56 55 56 57 58 56 56 54 54 54 54 54 54 53 50
55 53 53 52 52 52 53 54 55 55 54 54 55 55 54 54 51 53 53 55 55 52 53 53 55 53 51 50 50 53 53 53 53 54 55 53 52 51 51 51 50 50 50 50
56 54 53 54 53 53 52 53 54 54 54 54 54 53 55 55 55 55 55 55 55 54 55 57 60 57 52 54 49 52 51 50 50 50 51 50 49 48 48 48 47 47 47 47
54 54 54 54 55 54 53 54 53 52 52 53 53 54 54 54 55 54 54 51 52 54 57 57 57 55 54 54 52 46 49 49 48 47 48 47 47 46 46 44 45 45 45 44
51 52 52 52 52 54 53 53 52 50 51 52 52 52 53 55 55 55 53 52 54 56 58 58 56 55 55 52 52 49 48 47 47 46 46 45 45 45 45 44 44 44 44 44
49 49 50 51 52 50 51 51 51 50 50 51 55 54 53 53 54 54 56 56 56 55 55 56 55 56 55 55 51 49 48 47 46 46 45 45 45 44 45 44 44 44 44 44
48 49 50 51 50 49 53 52 52 51 52 50 53 53 54 53 53 54 54 57 57 56 56 55 55 56 55 50 50 50 49 48 47 45 44 45 45 45 44 44 44 45 44 44
48 48 52 53 53 52 48 47 53 52 52 50 54 56 57 55 54 55 54 55 55 55 56 54 54 54 54 52 52 51 48 48 48 48 47 45 44 45 45 45 44 46 46 46
51 51 50 51 50 48 47 51 52 52 53 54 56 57 53 56 55 54 54 54 54 54 55 55 53 53 54 53 52 50 50 50 49 49 49 48 48 47 46 46 46 45 46 46
49 50 50 51 46 45 46 50 48 51 51 51 54 55 56 57 57 54 54 54 54 54 54 53 55 55 55 54 53 52 51 50 50 48 47 47 48 48 48 48 48 48 47 47
47 47 49 48 46 52 52 52 51 52 53 54 53 52 53 55 54 52 52 53 53 53 52 53 54 54 54 55 56 54 52 51 49 51 51 49 48 48 50 50 50 50 49 48
MSLP
1008.75 1008.42 1007.80 1007.34 1007.00 1006.59 1007.35 1008.17 1009.58 1010.58 1011.31 1012.43 1013.00 1012.53 1013.49 1013.74 1013.62 1013.72 1014.39 1012.92 1012.10 1011.66 1012.05 1011.57 1011.10 1011.13 1009.75 1009.40 1010.13 1011.17 1012.09 1011.47 1010.98 1011.46 1011.24 1011.26 1011.66 1011.87 1012.19 1012.33 1012.72 1012.88 1012.75 1012.98
1009.07 1008.28 1007.97 1007.50 1007.07 1006.72 1006.90 1007.90 1008.87 1010.23 1010.97 1012.23 1013.08 1013.36 1013.85 1013.87 1013.69 1014.42 1015.07 1015.07 1013.47 1012.38 1013.21 1012.23 1011.83 1011.58 1010.49 1009.79 1009.50 1011.13 1011.86 1011.00 1010.58 1010.49 1010.94 1010.72 1011.11 1011.36 1011.63 1011.84 1012.22 1012.50 1012.43 1012.45
1010.07 1008.92 1008.39 1007.90 1007.68 1007.65 1008.25 1008.36 1008.85 1010.06 1010.60 1011.48 1012.43 1013.02 1013.53 1013.82 1013.26 1015.18 1017.39 1014.68 1013.60 1014.20 1013.37 1013.61 1012.86 1012.36 1012.43 1011.96 1011.34 1011.20 1011.13 1010.37 1009.88 1010.15 1010.37 1010.28 1010.41 1010.79 1011.04 1011.31 1011.61 1011.92 1012.02 1012.04
1010.96 1009.86 1009.24 1008.26 1007.67 1008.15 1009.19 1009.83 1009.91 1010.39 1011.39 1011.81 1012.41 1013.20 1013.80 1014.13 1014.57 1015.90 1014.55 1014.34 1014.21 1014.18 1013.98 1013.60 1013.57 1013.54 1013.30 1012.78 1011.97 1011.32 1010.93 1010.43 1010.29 1009.99 1009.98 1009.87 1010.10 1010.30 1010.27 1010.71 1011.05 1011.28 1011.38 1011.53
1011.24 1010.99 1009.98 1008.85 1008.62 1008.01 1009.38 1011.94 1011.96 1011.69 1012.07 1012.59 1012.79 1012.95 1014.11 1014.59 1014.73 1014.83 1014.98 1014.54 1013.98 1014.01 1014.34 1014.20 1013.91 1013.50 1013.53 1013.19 1012.79 1012.53 1012.46 1011.35 1010.88 1008.04 1009.28 1009.55 1009.70 1010.07 1009.90 1010.31 1010.52 1010.70 1010.60 1010.81
1011.79 1011.48 1010.79 1009.68 1009.20 1008.31 1009.29 1012.40 1013.10 1013.33 1013.32 1012.97 1013.01 1013.84 1014.53 1014.13 1014.35 1014.86 1014.79 1014.46 1014.29 1014.15 1013.87 1013.88 1013.93 1013.87 1013.53 1013.44 1013.04 1012.73 1012.57 1012.09 1010.77 1009.45 1008.95 1009.07 1009.25 1009.36 1009.46 1009.69 1009.92 1009.96 1010.06 1010.25
1011.98 1011.58 1010.64 1009.84 1009.39 1008.88 1010.38 1012.65 1013.28 1013.84 1014.11 1013.55 1013.89 1014.12 1014.43 1014.61 1014.71 1014.77 1014.80 1014.67 1014.58 1014.35 1014.28 1013.98 1013.61 1013.71 1013.91 1013.62 1012.99 1012.66 1012.07 1011.17 1010.39 1009.28 1008.57 1008.89 1009.12 1008.89 1008.98 1009.44 1009.48 1009.53 1009.68 1009.82
1012.02 1011.77 1011.31 1010.10 1009.65 1010.00 1011.15 1012.58 1013.75 1014.28 1014.47 1014.59 1014.49 1014.49 1014.64 1014.68 1014.74 1014.91 1015.12 1015.03 1014.80 1014.57 1014.44 1014.27 1013.85 1013.58 1013.96 1013.85 1013.40 1012.75 1012.13 1011.60 1010.68 1009.79 1008.94 1008.60 1008.50 1008.73 1008.86 1009.03 1009.25 1009.52 1009.76 1009.80
1011.36 1011.39 1011.15 1010.58 1010.47 1011.11 1011.82 1012.90 1014.18 1014.61 1014.97 1014.95 1015.03 1015.09 1015.08 1015.34 1015.20 1015.01 1015.14 1015.06 1014.94 1014.42 1014.24 1014.15 1014.28 1014.12 1014.06 1014.02 1013.37 1012.50 1011.94 1011.58 1010.84 1010.03 1009.08 1008.79 1008.85 1008.97 1009.16 1009.44 1009.75 1009.93 1009.85 1009.90
1011.18 1012.21 1011.69 1011.49 1011.67 1011.88 1012.29 1013.14 1013.91 1014.50 1014.93 1015.06 1015.24 1015.35 1015.42 1015.50 1015.60 1015.57 1015.28 1014.94 1014.76 1014.59 1014.51 1014.48 1014.42 1014.44 1014.26 1013.74 1013.36 1012.87 1012.32 1011.71 1011.19 1010.57 1010.17 1009.93 1009.65 1009.39 1009.71 1010.18 1010.46 1010.54 1010.44 1010.49
1011.37 1012.15 1012.26 1012.22 1012.12 1012.28 1012.84 1013.29 1013.91 1014.46 1014.64 1014.83 1015.06 1015.23 1015.44 1015.77 1015.86 1015.83 1015.71 1015.49 1015.19 1014.87 1014.59 1014.57 1014.39 1014.45 1014.36 1014.09 1013.62 1013.03 1012.41 1011.96 1011.56 1011.07 1010.68 1010.43 1010.70 1010.96 1010.43 1011.12 1011.21 1011.05 1011.13 1011.17
1011.00 1011.10 1011.53 1012.27 1012.29 1012.50 1013.07 1013.63 1013.98 1014.38 1014.77 1014.87 1015.02 1015.28 1015.45 1015.95 1016.05 1015.99 1015.85 1015.58 1015.54 1015.61 1015.04 1014.89 1014.90 1014.75 1014.52 1014.20 1013.87 1013.55 1013.04 1012.46 1011.91 1011.34 1011.02 1010.72 1010.82 1010.98 1011.17 1011.64 1011.93 1011.45 1011.79 1011.77
1010.05 1010.96 1011.44 1012.05 1012.31 1012.65 1013.21 1013.61 1014.00 1014.43 1014.67 1015.01 1015.03 1015.23 1015.35 1015.80 1016.01 1016.07 1016.05 1015.87 1015.77 1015.82 1015.57 1015.33 1015.33 1015.19 1014.80 1014.33 1014.06 1013.69 1013.26 1012.96 1012.40 1012.04 1011.81 1011.47 1011.32 1011.38 1011.62 1012.36 1012.33 1012.36 1012.34 1012.43
1009.88 1010.66 1012.13 1012.39 1012.89 1013.00 1013.30 1013.79 1014.08 1014.63 1014.92 1015.13 1015.34 1015.47 1015.53 1015.75 1015.94 1016.11 1016.22 1015.90 1015.92 1015.95 1015.95 1015.79 1015.71 1015.50 1015.10 1014.61 1014.25 1013.92 1013.50 1013.22 1012.78 1012.28 1012.28 1012.01 1011.85 1011.71 1011.50 1011.95 1012.42 1012.73 1012.77 1012.60
1010.56 1010.76 1011.59 1012.43 1012.89 1013.34 1013.60 1014.00 1014.64 1015.11 1015.36 1015.54 1015.63 1015.78 1015.79 1016.01 1016.10 1016.36 1016.40 1016.19 1016.23 1016.32 1016.50 1016.43 1016.22 1015.88 1015.34 1014.89 1014.59 1014.36 1014.00 1013.51 1012.98 1012.65 1012.81 1012.64 1012.42 1012.20 1012.05 1012.31 1012.62 1012.82 1012.73 1012.66
1010.93 1011.37 1012.05 1012.61 1013.02 1013.34 1013.76 1014.24 1014.70 1015.07 1015.38 1015.62 1015.73 1015.86 1015.90 1016.19 1016.36 1016.45 1016.63 1016.48 1016.52 1016.86 1016.83 1016.82 1016.65 1016.32 1015.70 1015.18 1014.79 1014.53 1014.35 1014.02 1013.41 1013.12 1013.02 1013.05 1013.14 1013.14 1012.85 1012.66 1012.98 1013.27 1013.60 1013.89
1011.11 1011.95 1012.28 1012.86 1013.27 1013.57 1013.80 1014.08 1014.29 1014.60 1014.99 1015.36 1015.56 1015.77 1016.05 1016.36 1016.44 1016.50 1016.62 1016.62 1016.67 1016.76 1016.62 1016.62 1016.63 1016.36 1016.04 1015.49 1015.11 1014.86 1014.59 1014.43 1013.94 1013.66 1013.57 1013.61 1013.79 1013.76 1013.74 1013.63 1013.79 1014.06 1014.37 1014.46
1010.42 1011.35 1011.88 1012.59 1013.22 1013.68 1013.95 1014.04 1014.18 1014.25 1014.67 1014.96 1015.46 1015.81 1016.16 1016.41 1016.73 1016.69 1016.87 1016.86 1016.90 1016.75 1016.59 1016.50 1016.39 1016.28 1016.29 1015.82 1015.38 1015.32 1015.11 1014.88 1014.74 1014.45 1014.36 1014.32 1014.47 1014.49 1014.52 1014.60 1014.69 1014.67 1014.81 1014.78
1010.95 1011.70 1012.30 1012.78 1013.23 1013.70 1014.04 1014.26 1014.38 1014.52 1014.69 1014.84 1015.32 1015.73 1016.06 1016.50 1016.78 1016.74 1016.85 1017.13 1017.23 1016.95 1016.88 1016.56 1016.39 1016.39 1016.48 1016.06 1015.94 1015.58 1015.67 1015.55 1015.40 1015.31 1015.27 1015.03 1015.07 1015.24 1015.10 1015.18 1015.36 1015.40 1015.36 1015.31
1011.67 1012.18 1012.69 1013.12 1013.42 1013.65 1014.05 1014.24 1014.52 1014.71 1014.70 1014.88 1015.31 1015.73 1016.24 1016.45 1016.90 1017.12 1017.17 1017.29 1017.39 1017.05 1016.94 1016.74 1016.45 1016.69 1016.47 1016.34 1016.29 1016.21 1016.18 1016.24 1016.19 1015.95 1015.99 1015.53 1015.66 1015.99 1015.95 1015.81 1015.97 1016.14 1016.03 1015.97
1012.23 1012.67 1013.19 1013.58 1013.90 1014.06 1014.22 1014.41 1014.72 1015.10 1015.18 1015.27 1015.54 1015.90 1016.19 1016.58 1017.02 1017.23 1017.39 1017.49 1017.40 1017.10 1017.04 1017.00 1016.71 1016.83 1016.61 1016.59 1016.44 1016.72 1016.84 1016.80 1016.58 1016.30 1016.33 1015.94 1016.17 1016.54 1016.48 1016.38 1016.52 1016.76 1016.74 1016.64
1012.89 1013.34 1013.73 1013.98 1014.25 1014.49 1014.62 1014.74 1015.06 1015.41 1015.45 1015.54 1015.77 1016.08 1016.28 1016.66 1017.05 1017.31 1017.32 1017.24 1017.31 1017.33 1017.44 1017.20 1016.91 1017.15 1016.84 1016.97 1017.27 1017.21 1017.37 1017.22 1016.78 1016.63 1016.63 1016.66 1016.74 1016.90 1016.99 1017.04 1017.02 1017.41 1017.40 1017.25
1013.51 1013.86 1014.00 1014.22 1014.60 1014.96 1014.93 1015.12 1015.38 1015.56 1015.73 1015.75 1015.87 1016.09 1016.13 1016.45 1016.63 1017.06 1017.17 1017.20 1017.12 1017.14 1017.05 1016.92 1016.72 1017.05 1017.08 1017.29 1017.28 1017.17 1017.53 1017.41 1017.27 1017.56 1017.73 1017.37 1017.14 1017.44 1017.56 1017.59 1017.53 1017.97 1018.05 1018.06
1013.97 1014.34 1014.50 1014.69 1014.85 1015.20 1015.64 1015.94 1015.76 1015.83 1015.95 1016.03 1015.98 1016.09 1016.18 1016.43 1016.79 1016.76 1016.90 1016.95 1016.91 1016.90 1016.75 1016.62 1016.68 1016.94 1016.93 1017.24 1017.40 1017.47 1017.58 1017.66 1017.74 1018.01 1017.95 1017.68 1017.72 1018.27 1018.24 1017.97 1018.26 1018.75 1018.89 1018.88
1014.38 1014.70 1014.99 1015.24 1015.48 1015.87 1016.10 1016.04 1016.09 1016.22 1016.23 1016.25 1016.23 1016.34 1016.60 1016.60 1016.68 1016.87 1016.84 1016.92 1016.81 1016.89 1016.97 1016.58 1016.53 1016.61 1016.80 1016.96 1017.13 1017.39 1017.44 1017.76 1017.86 1018.17 1018.24 1018.06 1017.93 1018.10 1018.29 1018.61 1019.06 1019.63 1019.68 1019.73
1014.92 1015.14 1015.31 1015.42 1015.82 1016.22 1016.35 1016.33 1016.47 1016.52 1016.60 1016.71 1016.61 1016.63 1016.67 1016.74 1016.89 1016.95 1016.98 1016.99 1017.10 1017.10 1017.17 1017.28 1017.14 1016.92 1017.00 1017.31 1017.55 1017.62 1017.72 1017.73 1017.80 1017.93 1018.18 1018.18 1018.22 1018.45 1018.84 1019.12 1019.70 1020.26 1020.35 1020.47
1015.32 1015.59 1015.64 1015.85 1016.03 1016.04 1016.20 1016.41 1016.64 1016.65 1016.48 1016.60 1016.63 1016.92 1017.12 1017.08 1017.08 1017.14 1017.28 1017.41 1017.47 1017.46 1017.49 1017.47 1017.29 1017.14 1017.02 1016.75 1016.86 1017.25 1017.62 1017.79 1017.80 1018.05 1018.21 1018.55 1018.78 1018.94 1019.34 1019.56 1019.95 1020.29 1020.33 1020.49
Wind_Speed
6 5 2 5 9 8 5 6 5 6 7 8 6 12 14 13 13 13 10 11 13 13 11 7 5 3 4 2 4 3 7 5 10 12 11 9 9 10 9 8 8 7 7 6
2 2 4 6 10 12 6 8 9 8 4 7 7 11 13 14 15 12 9 7 7 13 9 11 9 7 4 6 5 3 8 9 10 10 11 11 10 9 9 8 7 7 7 7
3 2 4 5 4 5 8 5 12 7 7 6 11 13 13 13 15 10 9 3 9 3 6 7 8 6 6 8 8 8 9 10 11 12 11 11 10 9 9 9 8 9 7 7
3 2 4 6 8 17 17 12 12 12 9 9 11 10 11 10 12 7 5 4 5 4 4 6 5 4 6 9 8 9 7 7 10 10 11 10 10 11 10 8 9 9 9 8
6 3 5 3 2 4 6 3 10 8 12 11 13 12 8 6 6 7 6 2 4 7 5 4 5 6 5 5 6 6 7 5 11 8 7 7 8 10 8 6 7 9 8 10
2 5 7 5 5 8 7 2 2 4 4 2 2 4 2 3 5 6 6 5 5 4 5 5 5 4 5 4 5 6 8 10 9 7 4 6 8 7 5 4 8 7 8 7
2 3 4 1 4 2 7 6 5 5 3 3 5 3 4 5 5 5 5 6 5 5 5 4 5 5 5 5 8 9 10 11 9 7 5 6 7 3 4 6 5 6 6 5
3 4 5 2 3 5 6 7 10 5 4 5 4 5 5 6 4 5 6 4 5 5 5 5 6 7 7 8 7 8 10 10 8 6 3 3 5 3 5 4 4 4 3 3
6 7 4 3 7 7 11 12 5 8 4 3 4 3 4 2 5 5 4 2 1 5 6 6 6 7 7 8 9 9 9 9 9 7 6 6 5 3 2 2 0 2 3 3
7 4 6 7 7 7 10 9 8 7 7 5 4 3 3 3 2 2 3 3 2 5 7 6 4 5 5 8 9 8 7 7 8 7 6 4 3 4 4 4 4 3 2 3
4 5 6 4 7 9 9 9 8 7 6 6 6 4 5 3 1 1 0 2 3 3 5 5 5 4 5 7 9 9 7 6 6 5 5 1 4 4 4 4 3 2 3 3
6 11 7 5 6 7 8 6 8 6 5 3 3 1 6 4 1 1 1 0 4 5 5 6 6 5 5 6 7 7 4 5 5 5 5 5 2 2 13 10 6 10 7 5
6 8 7 8 9 6 6 7 6 7 6 5 1 0 3 4 3 3 3 4 3 3 4 5 5 6 6 6 6 7 4 5 4 4 3 4 5 3 2 4 9 7 8 6
15 16 8 4 6 6 8 7 7 6 4 4 4 0 2 3 2 3 2 3 4 5 4 4 4 5 6 6 7 6 5 7 4 4 4 4 3 4 3 2 2 2 5 6
8 7 9 8 8 7 6 6 6 5 4 3 2 3 4 3 2 3 3 4 6 6 6 4 4 6 6 6 4 4 4 4 4 3 4 4 4 4 4 4 4 4 4 5
9 13 10 9 9 7 6 6 6 7 6 5 5 4 4 4 4 4 1 3 5 4 5 2 4 5 5 5 5 4 4 9 5 3 4 5 5 4 4 5 6 5 5 5
11 7 7 5 6 6 8 6 7 7 6 8 7 5 3 1 2 3 2 3 4 3 3 2 2 5 5 5 5 3 3 4 7 4 4 5 4 5 4 5 5 5 4 7
10 8 8 10 8 7 5 5 4 6 6 8 7 6 4 2 4 5 4 2 1 4 5 3 3 4 4 5 5 4 4 4 4 4 4 5 4 4 4 4 4 4 3 5
12 11 9 9 7 6 6 6 4 5 3 6 8 7 6 2 1 4 4 2 2 4 5 3 6 5 2 7 6 4 4 4 4 4 4 5 6 5 5 5 5 5 4 4
11 9 9 7 6 5 5 4 7 6 4 8 8 8 7 6 3 4 3 4 2 2 3 2 4 2 3 7 8 4 4 4 3 4 4 5 5 4 4 7 5 5 5 5
10 9 8 6 5 6 6 6 7 6 4 6 7 5 6 6 5 5 4 3 4 6 6 5 3 1 2 4 6 4 4 4 4 4 4 5 6 5 5 6 6 5 4 5
7 7 7 7 6 5 5 6 7 6 6 6 7 6 7 8 4 4 6 3 4 9 5 4 3 5 5 7 1 3 3 4 4 4 5 5 5 5 5 5 6 5 5 5
7 6 7 7 7 6 7 8 7 7 6 6 7 6 5 5 7 5 3 1 2 4 3 3 6 11 11 4 2 4 3 4 5 4 3 4 6 5 5 5 6 5 5 5
7 6 7 5 6 8 9 4 6 5 6 4 6 6 6 4 3 2 3 3 2 5 4 4 10 13 9 4 4 4 3 4 4 4 4 6 6 4 5 6 7 5 4 5
7 5 6 6 6 4 6 4 5 5 5 5 6 6 5 2 4 4 3 2 7 6 5 9 9 7 4 4 3 2 4 3 4 3 3 4 6 6 6 6 5 4 4 4
5 4 4 5 5 4 3 3 3 2 3 2 2 4 3 2 2 2 1 3 5 5 5 5 5 4 3 3 3 4 3 4 4 4 3 3 4 4 4 5 4 1 3 3
4 4 3 3 2 3 4 3 4 2 2 1 3 4 5 4 2 3 5 4 4 4 4 4 5 4 2 3 5 5 5 4 4 4 4 3 2 3 3 3 3 2 0 1
Wind_Direction
202 210 299 298 314 322 172 162 133 197 179 148 177 101 101 99 72 64 352 14 26 36 19 19 31 293 46 346 258 122 293 299 237 234 219 205 205 204 206 196 215 224 214 227
251 282 10 309 347 28 74 116 101 141 105 132 148 123 114 108 104 71 24 339 36 49 7 15 30 3 320 260 358 123 252 289 266 219 219 205 210 208 202 204 206 217 223 213
250 302 30 343 83 96 63 18 139 152 186 135 95 92 103 100 98 106 192 9 49 354 31 14 7 9 327 304 317 316 287 319 260 218 211 206 202 202 205 201 197 213 220 212
184 46 176 235 115 107 88 45 60 89 128 102 110 104 96 104 117 163 80 60 69 52 31 24 42 33 316 306 307 322 331 344 292 207 207 205 205 210 212 201 199 212 219 217
130 168 287 92 118 127 135 6 6 77 112 126 122 92 69 100 114 122 127 87 65 87 82 57 29 350 326 336 342 344 339 346 304 234 202 199 204 220 211 198 203 208 210 214
127 149 191 204 100 113 115 110 335 75 52 99 136 71 84 57 86 95 108 94 68 58 73 68 36 356 359 3 340 339 317 300 294 309 293 210 213 212 204 192 211 210 218 209
177 176 267 336 299 245 142 194 116 117 90 47 99 165 144 117 82 119 105 105 94 78 61 19 34 38 22 352 348 318 307 303 292 291 322 225 236 212 210 220 227 221 211 207
135 138 253 272 4 162 149 98 116 87 61 63 30 78 61 55 52 82 105 107 114 97 62 25 18 39 18 355 322 321 319 301 304 303 275 179 215 248 249 230 238 253 246 223
161 200 239 338 129 110 117 122 126 119 133 97 54 56 28 45 53 61 91 74 71 106 79 49 34 23 7 339 330 333 328 326 340 332 10 30 64 52 75 43 331 283 238 219
91 292 134 106 101 117 129 129 139 141 149 141 133 161 96 77 38 28 13 53 88 86 96 93 57 28 358 342 337 333 331 346 347 351 343 13 360 73 81 67 77 80 64 32
72 77 71 40 134 144 135 131 127 143 149 144 130 151 131 142 216 260 170 342 6 67 103 94 89 46 358 347 338 334 337 350 355 341 342 83 62 356 68 58 31 35 54 31
200 175 136 176 174 133 125 142 148 136 134 146 116 160 153 175 150 113 100 134 59 12 49 90 60 27 359 337 339 327 353 357 342 351 353 8 52 91 51 67 52 78 69 52
150 140 127 133 105 112 124 160 160 150 153 159 174 230 140 171 165 115 55 69 113 63 45 84 58 18 346 337 331 328 350 342 334 350 4 13 11 347 146 59 54 67 71 66
112 110 78 118 146 113 106 99 113 110 113 146 165 205 160 168 96 88 23 35 93 87 48 55 50 13 338 333 327 333 350 356 353 22 4 3 0 360 33 73 118 56 45 53
125 111 140 134 126 124 129 122 123 153 164 173 192 203 159 177 137 87 15 37 65 54 18 12 20 347 339 335 347 348 345 346 335 42 41 15 9 20 24 63 71 61 28 12
125 123 126 132 153 154 155 178 173 196 183 165 176 182 173 172 183 130 144 67 74 40 357 2 1 330 338 2 357 359 350 357 8 55 54 46 33 22 25 55 65 57 40 1
117 127 133 131 159 179 193 203 200 199 168 171 185 172 169 292 134 162 165 62 68 56 360 341 359 6 348 19 19 359 8 350 6 48 51 64 48 41 34 45 53 53 34 10
115 111 120 133 123 111 90 129 135 155 170 188 169 148 161 162 226 205 179 182 52 19 13 345 80 55 357 25 33 19 6 21 6 34 57 58 59 54 55 55 50 54 29 12
115 113 109 106 112 100 139 131 127 119 137 156 148 155 139 136 182 127 127 128 31 59 350 14 83 59 9 47 36 41 26 36 38 28 52 73 65 48 55 58 49 43 41 36
99 100 106 105 80 95 125 96 122 109 118 133 129 139 142 157 186 123 93 81 338 301 273 355 124 70 66 50 49 35 43 48 60 64 44 68 65 59 66 62 58 45 41 42
99 106 113 114 106 96 100 127 123 118 113 123 115 117 152 156 151 112 65 69 351 3 34 13 77 10 59 69 49 34 31 49 50 59 55 64 69 55 61 62 57 43 45 44
104 102 114 103 115 100 99 118 104 111 108 121 126 123 115 120 134 154 223 157 183 190 205 237 181 167 114 99 136 80 62 55 52 47 52 59 71 65 64 61 63 45 42 46
107 111 98 101 122 109 83 95 105 104 87 85 122 144 130 159 177 168 130 292 112 159 170 214 169 144 131 137 134 95 77 75 71 63 58 78 72 67 61 63 63 52 52 49
107 99 92 98 99 101 97 87 100 98 106 105 118 151 167 124 67 88 124 156 56 25 351 351 158 153 141 142 139 127 113 106 97 98 91 79 80 79 78 67 61 45 37 47
109 102 95 103 98 99 114 113 98 93 78 63 71 88 112 143 148 204 154 62 28 46 40 359 96 136 115 120 115 116 118 112 98 87 84 93 89 85 72 66 61 51 47 28
98 116 135 133 143 152 156 114 115 133 109 60 145 113 68 359 149 125 107 75 59 49 55 53 46 19 138 163 179 176 155 131 119 107 86 69 82 76 80 82 79 78 102 120
104 123 103 89 103 142 139 134 129 130 307 144 127 170 171 199 166 145 100 89 77 56 48 30 26 26 41 296 182 185 173 168 159 147 137 133 146 135 139 139 161 174 144 143